This demonstration page uses our WeatherBlox Daily Observations layout. Learn more.

Left ArrowRight Arrow

Hourly Observations for March 27, 2021

Temp ( °F °C ) Dew Point ( °F °C ) Humidity (%) Winds ( mph kmh ) Pressure ( in mb ) Visibility ( mi km ) Precip ( " mm )
12:15 am 00:15 Clear 42 5.5 40 4.7 95 95 NNW 6 9 29.90 1013 7 11 N/A
12:35 am 00:35 Clear with Mist and Fog 41 5.2 40 4.5 95 95 N 3 6 29.91 1013 5 8 N/A
12:55 am 00:55 Clear with Mist and Fog 40 4.2 38 3.5 95 95 WNW 6 9 29.93 1013 2 3 N/A
1:15 am 01:15 Clear with Mist and Fog 40 4.5 39 4 97 97 NW 7 11 29.92 1013 3 5 N/A
1:35 am 01:35 Partly Cloudy with Mist and Fog 40 4.2 39 3.7 97 97 NNW 7 11 29.92 1013 2 2 N/A
1:55 am 01:55 Cloudy with Mist and Fog 39 3.9 38 3.4 97 97 NNW 8 13 29.93 1013 1 1 N/A
2:15 am 02:15 Cloudy with Mist and Fog 40 4.7 40 4.2 97 97 NW 8 13 29.93 1014 2 3 N/A
2:35 am 02:35 Cloudy with Fog 42 5.5 41 5 97 97 NW 7 11 29.92 1013 1 1 N/A
2:55 am 02:55 Cloudy with Mist and Fog 42 5.7 42 5.3 97 97 NNW 7 11 29.92 1013 1 2 N/A
3:15 am 03:15 Cloudy with Mist and Fog 42 5.8 42 5.4 97 97 WNW 9 15 29.93 1014 3 5 N/A
3:35 am 03:35 Cloudy with Mist and Fog 42 5.7 42 5.3 97 97 NW 7 11 29.93 1014 4 6 N/A
3:55 am 03:55 Cloudy with Mist and Fog 42 5.6 41 5.2 97 97 NW 10 17 29.92 1013 4 6 N/A
4:15 am 04:15 Cloudy with Mist and Fog 42 5.5 41 5.1 97 97 NW 13 20 29.92 1013 3 5 N/A
4:35 am 04:35 Cloudy 42 5.7 42 5.3 97 97 NW 12 19 29.93 1014 7 11 N/A
4:55 am 04:55 Partly Cloudy 41 5.2 41 4.9 98 98 NW 8 13 29.93 1013 7 11 N/A
5:15 am 05:15 Partly Cloudy 41 5 40 4.6 97 97 NW 8 13 29.93 1013 7 11 N/A
5:35 am 05:35 Mostly Cloudy with Mist and Fog 41 5.1 40 4.6 97 97 NW 6 9 29.93 1013 5 8 N/A
5:55 am 05:55 Cloudy 42 5.5 41 5 97 97 NW 7 11 29.93 1014 7 11 N/A
6:15 am 06:15 Cloudy 43 6 42 5.5 97 97 NW 9 15 29.94 1014 7 11 N/A
6:35 am 06:35 Cloudy 44 6.5 42 5.7 95 95 NNW 10 17 29.93 1014 10 16 N/A
6:55 am 06:55 Cloudy 44 6.5 41 5.2 92 92 NNW 12 19 29.94 1014 10 16 N/A
7:15 am 07:15 Cloudy 43 6 40 4.7 91 91 NNW 7 11 29.97 1015 10 16 N/A
7:35 am 07:35 Mostly Cloudy 41 5.1 39 4.1 93 93 NW 7 11 29.99 1015 10 16 N/A
7:55 am 07:55 Cloudy 42 5.5 40 4.5 93 93 NW 12 19 30.00 1016 10 16 N/A
8:15 am 08:15 Cloudy 41 5.2 40 4.3 94 94 N N/A 30.02 1016 10 16 N/A
8:35 am 08:35 Mostly Cloudy 41 5.2 40 4.4 95 95 NNW 3 6 30.02 1016 10 16 N/A
8:55 am 08:55 Cloudy 42 5.6 41 4.9 95 95 WNW 5 7 30.02 1017 10 16 N/A
9:15 am 09:15 Cloudy 43 5.9 41 4.9 93 93 WNW 5 7 30.03 1017 10 16 N/A
9:35 am 09:35 Cloudy 45 7.2 42 5.5 89 89 NW 12 19 30.02 1017 10 16 N/A
9:55 am 09:55 Cloudy 46 7.5 42 5.5 87 87 NNW 12 19 30.03 1017 10 16 N/A
10:15 am 10:15 Cloudy 46 7.5 41 5.1 85 85 NNW 13 20 30.04 1017 10 16 N/A
10:35 am 10:35 Cloudy 46 7.6 41 5.1 84 84 NNW 10 17 30.04 1017 10 16 N/A
10:55 am 10:55 Mostly Cloudy 47 8.3 41 4.9 79 79 NNW 13 20 30.06 1018 10 16 N/A
11:15 am 11:15 Mostly Cloudy 47 8.4 40 4.3 76 76 NNW 16 26 30.07 1018 10 16 N/A
11:35 am 11:35 Cloudy 47 8.6 40 4.4 75 75 N 17 28 30.08 1018 10 16 N/A
11:55 am 11:55 Cloudy 47 8.3 39 3.8 74 74 NNW 14 22 30.08 1019 10 16 N/A
12:15 pm 12:15 Cloudy 48 9.1 40 4.2 72 72 NNW 14 22 30.07 1018 10 16 N/A
12:35 pm 12:35 Cloudy 48 8.8 38 3.5 70 70 NW 14 22 30.08 1019 10 16 N/A
12:55 pm 12:55 Cloudy 49 9.7 39 3.8 67 67 NNW 16 26 30.08 1018 10 16 N/A
1:15 pm 13:15 Cloudy 51 10.4 37 2.9 60 60 NW 17 28 30.07 1018 10 16 N/A
1:35 pm 13:35 Mostly Cloudy 52 11.2 37 2.9 57 57 NNW 16 26 30.06 1018 10 16 N/A
1:55 pm 13:55 Mostly Cloudy 52 10.9 37 3 58 58 NNW 14 22 30.06 1018 10 16 N/A
2:15 pm 14:15 Mostly Cloudy 53 11.7 37 2.8 55 55 NNW 14 22 30.06 1018 10 16 N/A
2:35 pm 14:35 Cloudy 55 12.9 37 2.5 50 50 N 20 31 30.04 1017 10 16 N/A
2:55 pm 14:55 Mostly Cloudy 55 12.7 34 1.1 45 45 NNW 16 26 30.04 1017 10 16 N/A
3:15 pm 15:15 Partly Cloudy 55 12.8 33 0.6 44 44 NW 20 31 30.03 1017 10 16 N/A
3:35 pm 15:35 Partly Cloudy 53 11.8 32 undefined 45 45 NW 16 26 30.04 1017 10 16 N/A
3:55 pm 15:55 Partly Cloudy 55 12.8 31 -0.8 39 39 NW 16 26 30.03 1017 10 16 N/A
4:15 pm 16:15 Partly Cloudy 56 13.4 30 -1.2 37 37 NNW 18 30 30.03 1017 10 16 N/A
4:35 pm 16:35 Mostly Cloudy 56 13.2 28 -2.2 35 35 NNW 17 28 30.03 1017 10 16 N/A
4:55 pm 16:55 Mostly Cloudy 56 13.5 27 -2.8 32 32 NNW 20 31 30.03 1017 10 16 N/A
5:15 pm 17:15 Partly Cloudy 56 13.1 25 -4 30 30 NNW 18 30 30.05 1017 10 16 N/A
5:35 pm 17:35 Sunny 56 13.2 25 -4.1 30 30 NNW 17 28 30.04 1017 10 16 N/A
5:55 pm 17:55 Partly Cloudy 55 12.9 24 -4.6 29 29 NNW 17 28 30.06 1018 10 16 N/A
6:15 pm 18:15 Sunny 55 13 24 -4.5 30 30 NW 18 30 30.06 1018 10 16 N/A
6:35 pm 18:35 Sunny 55 12.5 22 -5.4 28 28 N 14 22 30.07 1018 10 16 N/A
6:55 pm 18:55 Sunny 54 12 24 -4.7 31 31 NNW 12 19 30.08 1018 10 16 N/A
7:15 pm 19:15 Sunny 53 11.4 24 -4.5 33 33 N 12 19 30.10 1019 10 16 N/A
7:35 pm 19:35 Sunny 50 9.9 25 -3.8 38 38 N 7 11 30.11 1020 10 16 N/A
7:55 pm 19:55 Partly Cloudy 47 8.5 27 -2.6 46 46 N 7 11 30.14 1021 10 16 N/A
8:15 pm 20:15 Mostly Cloudy 47 8.6 28 -2.5 46 46 NW 8 13 30.16 1021 10 16 N/A
8:35 pm 20:35 Cloudy 49 9.5 24 -4.4 38 38 NNW 12 19 30.15 1021 10 16 N/A
8:55 pm 20:55 Cloudy 48 8.8 26 -3.3 43 43 N 7 11 30.16 1021 10 16 N/A
9:15 pm 21:15 Mostly Cloudy 46 7.9 27 -2.8 47 47 N 6 9 30.18 1022 10 16 N/A
9:35 pm 21:35 Partly Cloudy 45 7 28 -2.5 51 51 N 7 11 30.20 1023 10 16 N/A
9:55 pm 21:55 Clear 42 5.6 28 -2.5 56 56 NNW 6 9 30.22 1023 10 16 N/A
10:15 pm 22:15 Clear 41 5.2 28 -2.5 58 58 NNW 8 13 30.24 1024 10 16 N/A
10:35 pm 22:35 Clear 42 5.3 27 -2.6 57 57 NNW 8 13 30.25 1024 10 16 N/A
10:55 pm 22:55 Clear 39 4.1 28 -2.3 63 63 NNW 7 11 30.26 1025 10 16 N/A
11:15 pm 23:15 Clear 38 3.6 28 -2.2 66 66 N 7 11 30.27 1025 10 16 N/A
11:35 pm 23:35 Clear 39 4 28 -2.5 63 63 N 7 11 30.28 1025 10 16 N/A
11:55 pm 23:55 Clear 37 2.9 27 -2.7 67 67 N 3 6 30.29 1026 10 16 N/A

Powered by AerisWeather